• In Portugal
  • List of Countries
  • For 7 days
  • Water Temperature
  • Satellite Maps
  • Weather Map
  • Weather Widgets
  • user-avatar
    Login

    Hourly Weather Vanadzor

    Today, 19 July, Thursday

    Time Temperature Precipitation Wind Pressure Humidity
    00:00 +15°C° 0.3 mm 2 mps 631 mmHg 90%
    01:00 +15°C° 0 mm 2 mps 631 mmHg 90%
    02:00 +15°C° 0 mm 2 mps 631 mmHg 91%
    03:00 +15°C° 0 mm 2 mps 631 mmHg 92%
    04:00 +15°C° 0 mm 2 mps 631 mmHg 91%
    05:00 +15°C° 0 mm 1 mps 631 mmHg 90%
    06:00 +16°C° 0 mm 1 mps 632 mmHg 89%
    07:00 +19°C° 0 mm 1 mps 632 mmHg 79%
    08:00 +21°C° 0 mm 2 mps 633 mmHg 68%
    09:00 +24°C° 0 mm 2 mps 633 mmHg 57%
    10:00 +26°C° 0 mm 2 mps 634 mmHg 52%
    11:00 +27°C° 0 mm 2 mps 634 mmHg 46%
    12:00 +28°C° 0 mm 3 mps 634 mmHg 40%
    13:00 +29°C° 0 mm 3 mps 634 mmHg 39%
    14:00 +29°C° 0 mm 3 mps 634 mmHg 38%
    15:00 +30°C° 0 mm 3 mps 634 mmHg 37%
    16:00 +28°C° 0.3 mm 3 mps 633 mmHg 45%
    17:00 +27°C° 0.3 mm 2 mps 633 mmHg 54%
    18:00 +26°C° 0.3 mm 2 mps 633 mmHg 62%
    19:00 +24°C° 0.1 mm 2 mps 633 mmHg 69%
    20:00 +20°C° 0.1 mm 2 mps 632 mmHg 76%
    21:00 +18°C° 0.1 mm 2 mps 632 mmHg 83%
    22:00 +18°C° 0 mm 2 mps 632 mmHg 83%
    23:00 +17°C° 0 mm 2 mps 632 mmHg 83%

    Tomorrow, 20 July, Friday

    Time Temperature Precipitation Wind Pressure Humidity
    00:00 +17°C° 0 mm 2 mps 632 mmHg 83%
    01:00 +17°C° 0 mm 2 mps 632 mmHg 83%
    02:00 +17°C° 0 mm 2 mps 632 mmHg 83%
    03:00 +16°C° 0 mm 2 mps 632 mmHg 82%
    04:00 +18°C° 0 mm 1 mps 632 mmHg 81%
    05:00 +18°C° 0 mm 1 mps 632 mmHg 79%
    06:00 +19°C° 0 mm 1 mps 632 mmHg 78%
    07:00 +21°C° 0 mm 1 mps 632 mmHg 69%
    08:00 +24°C° 0 mm 1 mps 633 mmHg 59%
    09:00 +26°C° 0 mm 1 mps 634 mmHg 50%
    10:00 +27°C° 0 mm 2 mps 634 mmHg 47%
    11:00 +28°C° 0 mm 2 mps 634 mmHg 44%
    12:00 +29°C° 0 mm 2 mps 634 mmHg 40%
    13:00 +29°C° 0.1 mm 3 mps 634 mmHg 40%
    14:00 +29°C° 0.1 mm 3 mps 633 mmHg 40%
    15:00 +30°C° 0.1 mm 3 mps 633 mmHg 40%
    16:00 +29°C° 0.4 mm 3 mps 633 mmHg 46%
    17:00 +28°C° 0.4 mm 3 mps 632 mmHg 51%
    18:00 +26°C° 0.4 mm 2 mps 632 mmHg 57%
    19:00 +24°C° 0.1 mm 2 mps 632 mmHg 62%
    20:00 +21°C° 0.1 mm 2 mps 632 mmHg 67%
    21:00 +19°C° 0.1 mm 2 mps 632 mmHg 72%
    22:00 +18°C° 0 mm 2 mps 632 mmHg 72%
    23:00 +18°C° 0 mm 2 mps 632 mmHg 72%

    Day after tomorrow, 21 July, Saturday

    Time Temperature Precipitation Wind Pressure Humidity
    00:00 +17°C° 0 mm 2 mps 632 mmHg 72%
    01:00 +17°C° 0.1 mm 2 mps 632 mmHg 75%
    02:00 +16°C° 0.1 mm 2 mps 632 mmHg 78%
    03:00 +16°C° 0.1 mm 2 mps 632 mmHg 80%
    04:00 +16°C° 0 mm 2 mps 632 mmHg 80%
    05:00 +16°C° 0 mm 2 mps 632 mmHg 80%
    06:00 +17°C° 0 mm 2 mps 633 mmHg 80%
    07:00 +18°C° 0 mm 2 mps 633 mmHg 75%
    08:00 +20°C° 0 mm 2 mps 634 mmHg 70%
    09:00 +23°C° 0 mm 2 mps 634 mmHg 64%
    10:00 +24°C° 0 mm 2 mps 634 mmHg 61%
    11:00 +25°C° 0 mm 2 mps 634 mmHg 57%
    12:00 +27°C° 0 mm 2 mps 634 mmHg 54%
    13:00 +27°C° 0.4 mm 2 mps 634 mmHg 53%
    14:00 +27°C° 0.4 mm 2 mps 634 mmHg 53%
    15:00 +27°C° 0.4 mm 2 mps 634 mmHg 52%
    16:00 +27°C° 0.4 mm 2 mps 634 mmHg 57%
    17:00 +26°C° 0.4 mm 3 mps 634 mmHg 61%
    18:00 +25°C° 0.4 mm 3 mps 634 mmHg 65%
    19:00 +23°C° 0.6 mm 2 mps 634 mmHg 71%
    20:00 +20°C° 0.6 mm 2 mps 634 mmHg 77%
    21:00 +18°C° 0.6 mm 2 mps 633 mmHg 83%
    22:00 +17°C° 0.3 mm 2 mps 633 mmHg 85%
    23:00 +17°C° 0.3 mm 2 mps 633 mmHg 87%

    22 July, Sunday

    Time Temperature Precipitation Wind Pressure Humidity
    00:00 +16°C° 0.3 mm 2 mps 633 mmHg 88%
    01:00 +16°C° 0.2 mm 2 mps 633 mmHg 89%
    02:00 +16°C° 0.2 mm 2 mps 633 mmHg 90%
    03:00 +15°C° 0.2 mm 2 mps 633 mmHg 91%
    04:00 +16°C° 0.1 mm 2 mps 633 mmHg 91%
    05:00 +16°C° 0.1 mm 2 mps 633 mmHg 90%
    06:00 +17°C° 0.1 mm 2 mps 633 mmHg 89%
    07:00 +18°C° 0 mm 2 mps 634 mmHg 82%
    08:00 +20°C° 0 mm 2 mps 634 mmHg 75%
    09:00 +23°C° 0 mm 2 mps 634 mmHg 68%
    10:00 +24°C° 0 mm 2 mps 634 mmHg 65%
    11:00 +25°C° 0 mm 2 mps 634 mmHg 61%
    12:00 +26°C° 0 mm 2 mps 634 mmHg 57%
    13:00 +26°C° 0.2 mm 2 mps 634 mmHg 56%
    14:00 +27°C° 0.2 mm 3 mps 634 mmHg 55%
    15:00 +27°C° 0.2 mm 3 mps 633 mmHg 55%
    16:00 +26°C° 0.6 mm 3 mps 633 mmHg 58%
    17:00 +25°C° 0.6 mm 3 mps 633 mmHg 62%
    18:00 +25°C° 0.6 mm 2 mps 633 mmHg 66%
    19:00 +23°C° 0.4 mm 2 mps 633 mmHg 70%
    20:00 +20°C° 0.4 mm 2 mps 633 mmHg 75%
    21:00 +18°C° 0.4 mm 2 mps 633 mmHg 80%
    22:00 +18°C° 0.2 mm 2 mps 632 mmHg 81%
    23:00 +17°C° 0.2 mm 2 mps 632 mmHg 83%

    23 July, Monday

    Time Temperature Precipitation Wind Pressure Humidity
    00:00 +17°C° 0.2 mm 2 mps 632 mmHg 85%
    01:00 +16°C° 0.1 mm 2 mps 632 mmHg 86%
    02:00 +16°C° 0.1 mm 2 mps 632 mmHg 87%
    03:00 +15°C° 0.1 mm 2 mps 632 mmHg 88%
    04:00 +16°C° 0 mm 2 mps 632 mmHg 87%
    05:00 +16°C° 0 mm 2 mps 632 mmHg 86%
    06:00 +16°C° 0 mm 2 mps 632 mmHg 86%
    07:00 +18°C° 0 mm 2 mps 632 mmHg 78%
    08:00 +20°C° 0 mm 2 mps 633 mmHg 71%
    09:00 +23°C° 0 mm 2 mps 633 mmHg 63%
    10:00 +24°C° 0.2 mm 2 mps 633 mmHg 60%
    11:00 +25°C° 0.2 mm 2 mps 633 mmHg 56%
    12:00 +27°C° 0.2 mm 3 mps 633 mmHg 53%
    13:00 +27°C° 0.9 mm 3 mps 633 mmHg 52%
    14:00 +27°C° 0.9 mm 3 mps 633 mmHg 52%
    15:00 +27°C° 0.9 mm 3 mps 632 mmHg 51%
    16:00 +26°C° 1 mm 3 mps 632 mmHg 56%
    17:00 +25°C° 1 mm 2 mps 632 mmHg 62%
    18:00 +24°C° 1 mm 2 mps 632 mmHg 67%
    19:00 +21°C° 0.4 mm 2 mps 632 mmHg 71%
    20:00 +19°C° 0.4 mm 2 mps 632 mmHg 76%
    21:00 +18°C° 0.4 mm 2 mps 632 mmHg 81%
    22:00 +18°C° 0.2 mm 2 mps 632 mmHg 81%
    23:00 +17°C° 0.2 mm 2 mps 632 mmHg 81%

    24 July, Tuesday

    Time Temperature Precipitation Wind Pressure Humidity
    00:00 +17°C° 0.2 mm 2 mps 632 mmHg 81%
    01:00 +17°C° 0.1 mm 2 mps 632 mmHg 82%
    02:00 +16°C° 0.1 mm 2 mps 632 mmHg 82%
    03:00 +16°C° 0.1 mm 2 mps 632 mmHg 83%
    04:00 +16°C° 0 mm 1 mps 632 mmHg 82%
    05:00 +18°C° 0 mm 1 mps 632 mmHg 81%
    06:00 +18°C° 0 mm 1 mps 633 mmHg 80%
    07:00 +20°C° 0 mm 1 mps 633 mmHg 71%
    08:00 +23°C° 0 mm 1 mps 634 mmHg 63%
    09:00 +25°C° 0 mm 1 mps 634 mmHg 55%
    10:00 +27°C° 0 mm 1 mps 634 mmHg 51%
    11:00 +28°C° 0 mm 2 mps 635 mmHg 47%
    12:00 +29°C° 0 mm 2 mps 635 mmHg 43%
    13:00 +30°C° 0 mm 2 mps 635 mmHg 43%
    14:00 +30°C° 0 mm 2 mps 635 mmHg 42%
    15:00 +30°C° 0 mm 2 mps 634 mmHg 42%
    16:00 +29°C° 0.1 mm 2 mps 634 mmHg 47%
    17:00 +28°C° 0.1 mm 2 mps 634 mmHg 52%
    18:00 +27°C° 0.1 mm 2 mps 634 mmHg 57%
    19:00 +25°C° 0.1 mm 2 mps 634 mmHg 62%
    20:00 +23°C° 0.1 mm 2 mps 634 mmHg 68%
    21:00 +20°C° 0.1 mm 2 mps 634 mmHg 73%
    22:00 +20°C° 0 mm 2 mps 634 mmHg 72%
    23:00 +19°C° 0 mm 2 mps 634 mmHg 71%
    Show more